Find Starlink 31117

NORAD ID: 58776 Int'l Des: 2024-011 Owner: SPXS Country: US Constellation: starlink operational
LEOCIRCULAR

Live-Position

3D-Globus wird geladen...

Über Starlink 31117

Beschreibung wird geladen...

Nächste Überflüge

Passes for default location (London). Set your location on the main map for personalized predictions.

Höhenverlauf

Loading altitude history...

Zweizeiliger Elementsatz

1 58776U 24011M 26123.40014302 .00000565 00000-0 31186-4 0 9998
2 58776 53.1590 119.7596 0000980 89.0819 271.0294 15.30205601128647
Epoch: 3. Mai 2026 • Age: 15 hours

Aktueller Status

Höhe 489.3 km
Geschwindigkeit 7.62 km/s
Subsatellitenpunkt -41.03°S, 104.32°E
Startdatum 14. Jan. 2024
Alter 2.2 years
Typ internet

Technische Details

Klassifizierung Payload
Masse 730.00 kg
Trockenmasse 700.00 kg
Gesamtmasse 730.00 kg
Länge 0.30 m
Durchmesser 4.10 m
Spannweite 29.00 m
Form Box + pan
Hersteller SPXS
Bus-Typ Starlink V2M
Phasenstatus In Orbit
Besitzer/Staat SPXS/US

Most Searched